Location: *
(46.1866°S, 178.5290°W)
Time: 13:49:49
(UTC+00:00)

Cosmos 1461 - Pass Details

Date: 28 September 2021
Orbit: 520 x 642 km, 65.0° (Epoch: 18 October)

Event Time Altitude Azimuth Distance (km) Brightness Sun altitude
Rises 15:43:32 0° 210° (SSW) 2,916 6.5 -18.7°
Reaches altitude 10° 15:46:15 10° 194° (SSW) 2,025 5.8 -18.2°
Maximum altitude 15:49:51 22° 143° (SE) 1,408 5.6 -17.7°
Drops below altitude 10° 15:53:29 10° 91° (E) 2,050 6.8 -17.1°
Sets 15:56:14 0° 76° (ENE) 2,962 7.5 -16.6°
